Current weather by "City, St" or "zip code"  
 
Advertise Here

Current Conditions: Genesee County Airport, NY

Fair


60.0 F

Last Updated on Sep 16 2021, 11:56 pm EDT
Humidity: 86%
Wind Speed: S 3.5 mph
Barometer 30.21 in
Dewpoint: 55.9 F
Visibility: 10.00 mi
Precip: --
Heat Index: NA
Wind Chill: NA
Current conditions at:

Genesee County Airport, NY (KGVQ)

Lat: 43.03175 Lon: 78.16967

Local Radar Image active severe weather and emergency alerts image image weather storm and storm spotter reports image weather observation monitoring service image
Local
Radar
Active
Alerts
Storm Reports Obs
Monitoring

Sign-up For Email & Text Message Weather Alert Notification Services



Advertise Here

Observation History for Genesee County Airport, NY


Time Wind
(mph)
Vis
(mi)
Weather Precip (in) Temperature (F) Relative
Humidity
Wind
Chill
(F)
Heat
Index
(F)
Pressure
Air Dwpt altimeter
(in)
sea level
(mb)
Rmks
11:56 pm EDT S 3.5 10.00 Fair -- 60.0 55.9 86% NA NA 30.21 1022.9
10:56 pm EDT N 0.0 10.00 Fair -- 60.0 55.9 86% NA NA 30.22 1023.1
9:56 pm EDT SE 4.6 10.00 Fair -- 61.0 55.9 84% 61 NA 30.22 1023.4
8:56 pm EDT SE 5.8 10.00 Fair -- 62.0 55.9 80% 62 NA 30.23 1023.5
7:56 pm EDT E 8.1 10.00 Fair -- 64.0 55.0 73% NA NA 30.22 1023.3
6:56 pm EDT E 6.9 10.00 Fair -- 67.0 57.9 73% NA NA 30.22 1023.0
5:56 pm EDT SE 3.5 10.00 A Few Clouds -- 69.0 57.0 66% NA NA 30.21 1023.0
4:56 pm EDT SE 9.2 10.00 Fair -- 73.0 55.0 53% NA NA 30.21 1022.8
3:56 pm EDT SE 8.1 10.00 Fair -- 73.0 54.0 51% NA NA 30.21 1023.0
2:56 pm EDT E 8.1 10.00 Mostly Cloudy -- 71.0 54.0 55% NA NA 30.23 1023.4
1:56 pm EDT SE 12.7 10.00 A Few Clouds -- 72.0 53.1 52% NA NA 30.24 1023.7
12:56 pm EDT SE 9.2 10.00 A Few Clouds -- 70.0 54.0 57% NA NA 30.24 1023.8
11:56 am EDT SE 10.4 10.00 Fair -- 68.0 55.9 65% NA NA 30.25 1024.4
10:56 am EDT SE 10.4 10.00 Mostly Cloudy -- 67.0 57.9 73% NA NA 30.25 1024.3
9:56 am EDT SE 5.8 10.00 Fair -- 65.0 60.1 84% NA NA 30.25 1024.2
8:56 am EDT N 0.0 10.00 Fair -- 62.0 57.0 84% NA NA 30.24 1024.0
7:56 am EDT S 4.6 10.00 Fair -- 56.0 54.0 93% 55 NA 30.24 1023.7
6:56 am EDT N 0.0 10.00 Fair -- 51.0 51.1 100% NA NA 30.21 1022.9
5:56 am EDT SW 3.5 10.00 Fair -- 52.0 51.1 97% NA NA 30.19 1022.1
4:56 am EDT N 0.0 10.00 Fair -- 53.0 52.0 96% NA NA 30.17 1021.7
3:56 am EDT SW 3.5 10.00 Fair -- 53.0 52.0 96% NA NA 30.16 1021.2
2:56 am EDT SW 3.5 10.00 Fair -- 55.0 54.0 96% NA NA 30.15 1021.0
1:56 am EDT SW 4.6 10.00 Fair -- 56.0 55.0 97% 55 NA 30.15 1020.9
12:56 am EDT SW 4.6 10.00 Fair -- 57.0 55.9 96% 57 NA 30.14 1020.7

Regional Weather Observation


Niagara Falls, Niagara Falls International Airport, NY (KIAG)

Fair
61.0 F

Buffalo, Greater Buffalo International Airport, NY (KBUF)

Fair
64.0 F

Rochester, Greater Rochester International Airport, NY (KROC)

Fair
60.0 F

Williamson-Sodus Airport, NY (KSDC)

Fair
59.0 F

Dansville, Dansville Municipal Airport, NY (KDSV)

Fair
62.0 F

Cattaraugus County-Olean Airport, NY (KOLE)

Mostly Cloudy
59.0 F
Advertise Here


Advertise Here